Theta_e
297 293 288 291 291 289 288 289 289 290 293 290 289 290 294 291 290 291 293 295 297 300 309 309 311 315 315 321 326 327 328 328 327 324 324 323 324 329 330 330 329 328 327 325
292 290 294 296 293 291 288 286 288 289 291 290 288 289 291 290 291 293 294 292 294 293 293 296 299 306 313 318 323 326 327 327 328 329 328 324 324 325 330 331 330 329 327 326
288 289 295 294 291 290 287 286 285 288 289 288 285 286 287 290 291 291 292 292 293 294 294 294 295 299 308 313 319 324 326 327 328 328 325 321 323 322 326 328 328 329 329 328
289 293 292 291 290 291 286 290 289 288 286 283 286 281 284 287 289 290 293 291 292 292 293 293 293 296 301 303 308 318 321 324 326 326 325 325 323 322 322 326 328 328 328 328
287 288 288 288 290 292 288 291 289 288 285 283 281 278 287 282 285 289 291 293 293 293 292 293 294 297 299 300 299 300 309 319 321 324 325 324 321 323 325 322 324 325 326 327
288 289 292 290 291 291 291 289 287 286 284 278 282 281 280 282 285 287 291 293 294 291 293 294 297 299 299 300 301 300 298 299 306 322 324 323 322 321 320 323 323 323 323 323
284 285 287 289 287 288 289 286 279 277 277 278 278 277 286 285 287 288 289 289 290 292 294 295 297 297 298 300 301 298 297 298 299 301 322 324 322 321 322 322 322 321 320 319
282 279 286 288 288 285 286 285 277 273 274 276 279 277 283 288 287 288 290 288 291 292 294 295 296 296 297 300 301 301 300 302 303 304 308 316 317 317 317 318 318 316 314 312
281 281 285 287 287 289 283 282 286 279 274 276 278 280 286 287 288 288 289 290 291 292 294 295 295 295 296 298 299 301 301 301 302 303 303 305 308 313 312 306 307 306 305 304
284 280 285 286 287 288 286 288 281 281 275 272 277 277 280 283 288 288 288 290 291 293 294 294 294 294 295 295 296 298 298 298 296 297 297 298 299 301 301 301 300 299 300 300
287 285 283 287 285 283 283 282 282 284 282 277 273 278 284 287 289 289 291 291 292 293 293 293 293 293 294 293 294 294 294 294 294 294 294 295 295 295 295 295 294 293 293 293
288 285 280 283 286 286 285 285 287 282 278 278 279 279 285 286 288 289 290 291 291 292 292 292 292 291 291 292 292 292 292 292 291 291 291 291 292 292 292 291 291 291 290 290
289 284 277 281 284 285 283 284 285 284 282 280 280 282 286 288 288 288 291 291 292 292 291 291 290 290 290 290 290 290 290 290 290 290 290 289 289 290 289 289 289 289 288 287
294 285 283 279 281 284 281 282 283 284 280 281 282 282 285 287 288 288 289 292 292 292 291 290 289 289 289 289 289 289 289 289 289 289 288 288 288 288 288 287 287 286 286 285
290 282 283 284 285 286 285 285 285 283 286 282 285 283 288 288 288 289 289 291 291 291 291 291 290 289 288 288 288 288 288 288 288 288 287 286 286 287 285 285 284 284 284 284
288 278 282 280 285 285 283 285 287 287 287 286 283 283 287 288 291 290 291 292 292 293 292 292 291 290 289 289 289 288 288 287 287 286 286 285 285 284 284 283 283 283 283 283
287 280 278 278 283 283 280 283 284 286 288 287 282 288 287 288 290 291 291 293 293 294 293 292 291 291 290 290 289 288 288 287 286 285 284 284 284 284 283 283 283 283 283 283
285 284 282 277 281 275 284 287 287 286 287 289 287 286 288 290 292 292 294 294 294 294 294 293 293 291 291 290 289 287 286 285 284 284 283 283 283 283 283 283 282 282 282 282
287 283 278 279 273 280 284 283 284 283 285 287 288 289 288 288 288 289 292 295 296 296 296 295 294 292 290 288 287 286 285 284 284 283 283 282 282 282 281 281 281 281 279 278
283 286 282 268 275 275 281 288 287 289 283 292 290 288 287 288 285 291 291 294 295 296 296 294 292 290 288 287 286 285 284 284 284 283 283 282 281 280 279 280 279 278 277 278
278 277 281 271 271 274 282 285 287 280 282 283 287 289 289 289 293 291 290 292 294 294 292 291 290 288 288 286 286 285 284 284 284 282 281 280 279 279 279 278 277 275 275 276
281 278 272 269 267 276 283 284 284 286 284 284 286 287 287 287 287 286 288 289 290 289 289 289 288 287 286 286 286 285 284 283 282 281 279 278 278 278 277 276 273 272 273 273
280 282 278 281 280 285 284 284 286 286 285 284 285 287 287 287 287 286 286 286 286 287 286 287 287 284 284 285 286 284 283 281 280 280 277 275 275 276 274 274 274 273 272 270
281 280 280 283 281 282 284 285 285 286 286 285 286 285 286 285 286 285 285 284 284 282 283 281 283 283 282 284 284 285 281 280 280 277 275 274 274 273 273 273 272 271 268 267
282 283 279 280 281 282 283 285 286 285 286 286 286 286 286 285 284 284 282 280 282 281 279 282 284 284 283 282 281 280 278 279 277 276 274 274 274 273 271 271 269 270 269 269
282 282 284 284 284 285 284 287 287 286 285 286 286 285 284 285 285 282 280 281 279 279 279 279 280 282 280 280 278 277 277 278 276 275 274 274 272 270 269 269 267 273 276 278
Wind_Speed
5 7 22 16 3 3 7 9 11 9 11 5 8 8 14 4 4 6 9 9 9 13 13 7 8 8 7 8 12 14 13 11 9 4 4 3 4 4 3 4 6 5 5 6
6 24 9 5 3 7 5 7 17 3 3 6 4 12 10 5 7 11 14 10 13 7 8 8 9 8 10 13 13 12 14 12 11 8 5 3 3 2 4 5 5 6 6 6
11 2 12 15 6 10 6 7 4 5 3 2 3 7 7 6 5 4 7 8 7 12 11 8 10 10 8 10 12 13 14 13 12 11 4 3 3 2 2 2 3 5 7 8
6 13 20 11 15 11 12 3 4 4 3 4 5 9 6 7 9 9 12 9 12 10 8 6 7 7 7 6 5 7 8 10 10 10 9 11 7 7 4 4 4 5 7 7
12 11 10 17 16 13 6 8 6 1 3 2 2 1 10 1 11 13 13 14 15 12 10 9 9 8 5 7 6 5 7 7 7 11 10 9 6 5 6 5 8 7 5 6
8 4 13 13 8 11 8 5 6 4 3 5 9 9 7 8 8 7 16 15 16 10 7 6 5 6 5 3 5 5 6 5 6 9 11 12 11 7 4 4 4 3 2 1
4 5 1 4 7 4 8 10 3 3 4 12 4 5 14 5 8 6 7 11 9 9 8 8 8 7 6 6 5 5 6 6 6 7 10 12 11 9 7 6 4 4 3 2
12 9 11 5 8 10 12 9 6 10 7 4 2 8 10 8 4 8 6 4 7 7 7 7 7 7 7 6 6 7 6 5 5 7 7 6 7 5 4 4 6 5 5 4
10 8 2 5 2 10 7 10 6 7 4 4 5 7 10 6 8 3 6 7 9 8 8 8 6 6 6 5 4 6 6 4 4 5 4 6 6 8 8 8 7 7 5 4
6 5 3 3 2 1 8 10 5 1 6 5 5 5 7 5 10 8 8 12 9 7 8 7 6 6 3 4 4 5 5 5 4 6 5 6 7 8 8 7 9 9 7 6
5 3 2 5 7 9 3 4 1 4 5 7 3 10 10 14 16 15 16 12 13 11 9 7 6 6 6 4 5 5 6 6 5 5 6 8 8 8 8 8 8 8 8 7
3 5 4 5 3 2 1 8 13 7 9 1 4 8 2 8 7 7 8 8 6 7 7 6 6 7 7 6 5 5 5 6 5 5 7 8 8 8 8 8 9 9 10 7
9 1 4 4 3 1 5 5 4 3 4 10 9 16 1 5 5 6 10 9 8 8 7 6 6 6 7 7 7 6 5 6 5 6 8 8 7 8 8 9 9 9 9 7
8 3 8 12 10 9 4 4 4 5 5 6 13 6 6 7 8 5 6 8 10 10 11 8 6 6 6 5 6 7 5 4 5 6 7 8 7 8 8 8 8 8 7 8
6 7 4 4 6 7 8 11 10 8 15 10 19 8 15 9 8 6 6 7 10 11 12 12 11 9 7 7 7 6 6 6 5 8 7 7 7 8 8 8 7 7 7 6
1 4 4 1 3 5 4 8 12 20 21 22 5 12 5 4 6 6 9 11 12 14 14 14 12 11 11 11 10 8 7 7 6 7 8 7 8 7 7 7 7 6 6 6
9 6 4 8 3 6 2 14 15 14 19 18 17 18 6 5 8 10 11 14 18 18 18 18 17 15 14 14 12 12 10 8 7 8 7 7 7 8 7 7 6 6 6 6
8 8 3 3 4 4 11 7 12 17 15 21 11 5 10 11 13 7 8 17 19 17 16 16 14 14 14 12 11 9 10 9 9 8 8 7 7 7 6 6 7 6 4 5
1 7 4 6 3 7 14 9 8 9 14 14 14 15 8 3 4 7 11 12 16 18 17 17 15 14 12 13 11 12 10 9 9 9 9 7 6 7 6 6 7 4 4 2
4 3 6 3 9 17 4 14 10 6 27 16 12 10 10 7 4 15 11 13 16 13 12 13 14 13 14 13 13 13 11 11 11 10 8 7 6 6 6 6 6 3 2 3
4 3 15 4 5 11 7 5 7 12 11 4 8 12 14 13 18 5 4 6 7 8 11 13 16 16 16 14 15 13 12 13 9 8 8 6 5 6 5 5 3 3 3 4
10 9 5 4 2 18 6 4 16 5 2 1 2 4 8 6 1 1 2 4 8 10 12 14 14 13 12 16 16 14 13 9 10 10 9 7 6 4 4 6 4 3 4 5
4 7 9 11 9 4 6 1 1 2 2 1 2 2 2 5 5 4 3 4 5 8 10 9 12 11 10 13 14 14 10 12 11 10 8 6 6 5 5 5 6 4 4 3
4 1 3 4 2 4 5 1 0 1 3 2 2 2 2 2 4 2 3 3 4 5 7 5 11 12 11 11 9 10 13 12 12 11 9 7 7 6 4 3 3 3 4 3
4 7 5 4 2 4 1 3 5 3 4 4 5 3 2 3 2 3 3 3 4 4 2 6 10 10 11 10 10 11 12 13 11 9 8 7 5 6 5 3 4 3 3 4
5 6 8 6 6 3 5 7 6 5 3 5 5 3 3 2 3 2 2 2 3 4 3 4 5 8 10 11 11 11 12 13 13 10 8 7 6 5 4 5 2 3 5 5
Wind_Direction
198 190 210 197 152 166 149 189 217 211 208 177 220 231 245 226 222 236 218 207 215 222 235 223 218 213 198 193 190 192 189 189 174 170 183 176 190 169 193 180 187 179 180 186
141 221 199 244 239 211 212 191 201 250 147 166 233 247 253 200 222 207 211 211 220 226 237 227 220 198 198 197 195 194 196 186 188 192 197 168 159 197 186 182 187 185 190 191
178 229 201 194 206 213 229 206 160 191 123 131 130 277 252 236 247 236 221 227 230 220 228 229 209 203 191 202 195 190 192 190 186 186 149 92 82 33 168 170 177 196 196 201
233 231 183 205 216 201 233 171 157 112 119 220 169 255 247 233 236 220 235 213 232 221 231 211 200 187 177 189 187 182 177 186 185 170 181 193 188 186 199 180 187 207 202 208
203 166 170 202 200 184 208 170 155 105 234 195 208 230 253 193 237 234 235 230 229 220 209 210 200 175 168 154 168 162 169 179 170 177 184 188 183 191 193 169 195 196 203 205
200 187 173 196 179 179 145 80 69 92 126 267 212 188 249 205 207 223 231 230 223 188 188 165 151 141 135 140 146 153 165 182 189 183 186 188 194 190 195 190 169 184 196 180
168 205 194 151 142 114 154 139 183 202 165 234 169 182 237 224 234 230 251 243 203 159 163 167 167 160 153 155 157 153 170 192 198 193 197 194 191 190 192 184 162 154 125 73
168 210 167 192 199 179 190 183 162 194 182 210 51 232 245 231 257 263 270 195 147 165 159 173 174 158 155 152 150 144 167 174 196 192 196 184 171 169 154 123 117 94 94 82
173 227 134 153 176 157 204 190 188 95 23 64 203 275 294 230 260 244 213 164 172 175 172 175 168 159 148 144 144 140 141 130 127 132 131 115 126 133 125 106 104 109 103 95
205 153 154 130 123 137 178 155 169 336 146 235 250 272 231 252 234 211 211 200 185 169 169 167 165 150 126 119 119 111 119 132 115 104 95 98 99 102 105 116 109 101 101 94
150 133 185 113 194 167 161 179 151 127 159 189 221 256 207 217 220 211 208 195 177 179 172 162 160 148 142 132 131 131 126 131 116 105 96 101 96 95 94 99 107 102 90 85
184 118 139 183 159 138 273 196 191 179 213 211 153 257 249 249 265 200 184 180 170 161 162 159 155 152 151 148 141 144 133 122 117 107 101 98 100 100 103 106 104 99 100 89
181 203 91 35 18 91 212 207 211 112 62 201 208 244 329 290 276 221 180 175 168 154 150 151 159 177 166 160 148 151 142 129 114 103 107 100 102 108 107 102 98 95 100 92
109 140 173 200 216 119 195 193 190 169 175 194 231 262 267 252 247 229 203 172 160 157 167 179 181 188 170 160 154 145 129 128 124 113 111 112 108 111 108 103 100 104 102 104
145 191 146 334 149 164 173 184 184 188 223 195 240 204 239 239 219 210 176 153 162 175 181 185 185 185 171 160 156 149 141 140 134 120 115 113 114 109 106 101 103 106 107 114
191 218 131 64 73 132 165 221 209 208 221 231 245 250 228 104 116 169 177 177 189 194 195 189 184 178 179 178 167 158 155 144 136 123 124 125 124 120 116 119 123 116 114 109
194 127 110 228 124 107 284 201 203 219 216 216 213 232 167 206 211 199 182 191 201 203 194 191 187 183 181 182 170 169 161 146 139 135 140 140 139 135 133 132 129 120 113 109
148 134 77 108 63 209 252 189 202 216 225 223 240 218 189 205 215 199 194 195 206 199 194 193 187 185 181 167 163 147 150 150 144 149 149 142 148 136 142 132 121 116 108 118
296 130 130 148 176 295 266 234 161 174 255 216 216 221 228 166 74 267 205 208 211 200 197 194 185 176 165 162 153 153 153 148 151 161 160 157 145 144 144 130 126 111 109 101
41 113 128 121 187 225 294 210 160 88 268 247 211 200 186 142 181 238 199 200 208 194 186 174 163 151 154 165 153 155 163 162 171 165 159 147 139 138 141 139 137 126 120 119
105 56 204 142 220 278 233 190 131 165 266 241 186 198 185 198 226 269 127 189 188 176 159 150 159 170 170 153 156 166 164 179 157 133 127 125 129 145 144 124 94 115 113 111
155 152 187 72 95 257 153 65 170 237 26 63 105 156 193 215 115 356 3 152 160 153 149 160 159 163 156 158 161 167 175 146 135 135 134 136 137 132 128 123 115 108 126 121
187 183 174 178 208 214 201 144 100 144 166 73 49 36 232 194 214 196 207 158 155 152 150 153 158 145 153 162 167 161 153 141 136 138 139 139 137 134 141 144 145 138 141 134
262 175 170 96 245 204 204 92 68 123 115 94 66 71 147 221 188 178 150 164 139 125 141 124 136 149 150 160 155 148 145 144 145 147 151 153 153 151 147 134 148 139 157 166
181 134 161 292 69 57 234 216 167 139 113 104 69 63 70 105 143 174 167 141 148 127 99 147 157 159 158 150 140 143 147 147 148 148 154 161 158 164 155 159 162 174 205 172
188 175 189 234 171 141 195 173 163 163 129 86 77 52 42 63 161 123 147 143 118 131 119 121 128 149 155 155 145 147 155 157 155 162 168 171 163 163 162 162 156 249 201 190